Tracking 22879 objects as of 20-Apr-2021
HD Live streaming from Space Station
objects crossing your sky now

OBJECT A

Track OBJECT A now!
10-day predictions


NORAD ID: 45249
Int'l Code: 2020-014A
Perigee: 478.7 km
Apogee: 489.2 km
Inclination: 35.0 °
Period: 94.1 minutes
Semi major axis: 6854 km
RCS: Unknown
Launch date: February 19, 2020
Source: People's Republic of China (PRC)
Launch site: Xichang Space Center, China (XSC)
aabbcc
Your satellite tracking list
Your tracking list is empty




NASA's NSSDC Master Catalog

Two Line Element Set (TLE):
1 45249U 20014A   21110.14002451  .00003972  00000-0  13592-3 0  9997
2 45249  35.0150 263.2913 0007610 158.2481   9.6093 15.29661989 65126
Source of the keplerian elements: AFSPC